TimeCDT,TemperatureF,Dew PointF,Humidity,Sea Level PressureIn,VisibilityMPH,Wind Direction,Wind SpeedMPH,Gust SpeedMPH,PrecipitationIn,Events,Conditions,WindDirDegrees,DateUTC
12:43 AM,64.4,55.4,73,29.80,10.0,SW,16.1,28.8,0.00,,Overcast,220,2013-04-08 05:43:00
12:51 AM,64.0,55.9,75,29.78,10.0,SSW,15.0,28.8,0.00,,Overcast,210,2013-04-08 05:51:00
1:51 AM,64.0,55.0,73,29.76,10.0,South,17.3,27.6,N/A,,Mostly Cloudy,190,2013-04-08 06:51:00
2:51 AM,64.0,53.1,67,29.73,10.0,South,16.1,24.2,N/A,,Mostly Cloudy,180,2013-04-08 07:51:00
3:51 AM,64.0,53.1,67,29.73,10.0,SSW,12.7,20.7,N/A,,Scattered Clouds,200,2013-04-08 08:51:00
4:51 AM,63.0,52.0,67,29.73,10.0,South,15.0,-,N/A,,Scattered Clouds,190,2013-04-08 09:51:00
5:51 AM,63.0,52.0,67,29.71,10.0,South,12.7,20.7,N/A,,Mostly Cloudy,190,2013-04-08 10:51:00
6:51 AM,63.0,52.0,67,29.74,10.0,SSW,11.5,-,N/A,,Mostly Cloudy,200,2013-04-08 11:51:00
7:51 AM,64.9,53.1,65,29.75,10.0,SSW,10.4,-,N/A,,Mostly Cloudy,210,2013-04-08 12:51:00
8:51 AM,66.0,53.1,63,29.78,10.0,SSW,10.4,-,N/A,,Overcast,210,2013-04-08 13:51:00
9:51 AM,69.1,54.0,58,29.79,10.0,SSW,11.5,-,N/A,,Mostly Cloudy,210,2013-04-08 14:51:00
10:51 AM,72.0,55.0,55,29.81,10.0,SW,12.7,-,N/A,,Mostly Cloudy,230,2013-04-08 15:51:00
11:51 AM,75.9,57.0,52,29.79,10.0,WSW,6.9,-,N/A,,Scattered Clouds,240,2013-04-08 16:51:00
12:51 PM,75.9,57.0,52,29.78,10.0,Calm,Calm,-,N/A,,Mostly Cloudy,0,2013-04-08 17:51:00
1:51 PM,77.0,57.9,52,29.77,10.0,Variable,4.6,-,N/A,,Mostly Cloudy,0,2013-04-08 18:51:00
2:51 PM,79.0,57.0,47,29.76,10.0,SSE,16.1,25.3,N/A,,Mostly Cloudy,160,2013-04-08 19:51:00
3:51 PM,78.1,55.9,46,29.75,10.0,South,13.8,23.0,N/A,,Mostly Cloudy,170,2013-04-08 20:51:00
5:51 PM,77.0,54.0,45,29.78,10.0,South,12.7,-,N/A,,Mostly Cloudy,190,2013-04-08 22:51:00
6:51 PM,75.9,55.0,48,29.79,10.0,SSE,13.8,-,N/A,,Mostly Cloudy,150,2013-04-08 23:51:00
7:51 PM,75.0,54.0,48,29.80,10.0,South,11.5,-,N/A,,Mostly Cloudy,170,2013-04-09 00:51:00
8:51 PM,73.0,55.0,53,29.83,10.0,SSE,10.4,-,N/A,,Mostly Cloudy,150,2013-04-09 01:51:00
9:51 PM,72.0,55.9,57,29.85,10.0,SSE,12.7,-,N/A,,Overcast,150,2013-04-09 02:51:00
10:51 PM,71.1,55.0,57,29.85,10.0,South,15.0,19.6,N/A,,Mostly Cloudy,170,2013-04-09 03:51:00
11:51 PM,71.6,55.4,57,29.88,10.0,South,10.4,-,N/A,,Overcast,180,2013-04-09 04:51:00